Location: Kazanice
(53.5528°N, 19.7258°E)
Time: 00:29:25
(UTC+01:00)

ISS - Pass Details

Date: 02 February 2019
Orbit: 403 x 411 km, 51.6° (Epoch: 20 February)

Event Time Altitude Azimuth Distance (km) Brightness Sun altitude
Rises 18:04:48 0° 271° (W) 2,337 1.8 -14.9°
Reaches altitude 10° 18:06:54 10° 268° (W) 1,477 0.4 -15.2°
Maximum altitude 18:10:09 58° 189° (S) 484 -3.4 -15.7°
Enters shadow 18:11:26 32° 122° (ESE) 732 -3.0 -15.8°
